Wind_Speed
4 4 3 1 6 8 4 2 1 3 5 7 7 2 15 22 25 26 30 28 26 22 26 29 17 7 12 12 14 29 31 29 21 14 11 13 17 18 17 19 20 19 21 22
5 5 5 4 7 7 6 5 5 7 4 8 4 18 29 28 27 23 22 22 23 24 19 23 27 7 8 7 7 21 27 29 22 20 21 19 18 17 18 18 19 21 20 19
3 5 5 5 3 6 4 4 3 5 5 6 5 12 10 32 31 27 23 19 16 14 17 12 5 2 6 7 3 6 12 13 14 24 32 29 27 25 25 23 20 20 20 20
3 4 2 9 6 7 5 4 8 5 8 4 5 8 7 20 30 25 20 16 16 13 7 5 1 6 5 7 5 10 14 12 17 17 19 25 32 32 34 31 29 25 24 22
3 4 5 7 5 1 2 4 5 6 10 10 16 18 12 23 22 18 11 13 13 8 7 7 7 7 11 13 11 10 12 16 16 16 21 22 29 30 32 36 36 32 28 25
3 4 7 6 5 6 8 2 7 14 12 9 3 4 4 9 14 11 15 12 8 7 5 7 11 11 13 14 15 17 19 17 19 20 18 21 26 31 34 33 37 35 31 27
3 4 3 6 14 5 6 5 15 7 8 17 5 3 7 7 6 9 8 6 7 8 8 9 9 11 15 17 18 20 22 23 25 26 25 22 25 28 32 34 33 37 34 28
2 3 3 19 8 7 6 13 23 20 12 6 4 2 7 3 7 10 11 12 13 13 13 11 11 14 15 17 18 21 23 23 23 22 23 26 25 27 28 32 32 35 36 32
4 4 5 17 16 12 15 18 20 22 19 16 10 10 10 13 15 12 11 14 18 17 16 14 15 17 17 18 22 24 23 25 26 26 22 22 27 27 27 29 31 35 36 33
4 1 7 12 16 19 19 19 18 18 18 18 19 17 18 15 12 11 11 9 10 14 15 16 18 21 22 25 23 25 28 28 27 26 24 23 24 29 26 28 30 27 18 13
1 4 1 5 18 17 18 19 20 22 22 22 21 22 23 24 22 21 24 24 19 19 21 23 26 29 26 26 25 26 29 29 30 30 28 26 24 25 25 24 29 34 31 25
4 4 3 6 17 18 21 21 18 19 22 21 23 27 29 32 32 30 27 27 31 31 30 30 30 31 28 27 25 24 28 33 34 32 29 28 26 24 22 21 27 27 30 16
5 3 4 5 9 15 18 20 23 24 23 28 29 29 30 34 38 41 36 32 33 34 32 30 29 33 32 31 26 25 27 31 34 33 28 28 24 23 25 22 23 24 20 22
5 3 5 5 6 14 17 21 24 26 28 29 33 35 35 36 39 41 43 40 31 28 29 27 27 32 32 31 28 29 30 32 34 32 29 24 25 25 25 19 18 19 33 32
4 2 2 8 14 17 20 23 28 28 29 30 32 39 31 31 31 33 33 35 34 26 26 31 32 35 33 31 31 32 33 36 35 32 30 26 24 25 24 23 24 28 32 28
1 5 9 13 19 24 24 23 27 30 30 32 35 38 34 41 36 28 27 25 24 24 30 30 30 30 29 32 33 35 35 34 31 29 29 28 26 24 32 30 29 30 34 35
7 11 17 21 22 23 24 20 25 29 28 31 35 34 38 35 32 20 13 15 14 16 19 28 32 33 34 36 37 37 37 36 30 28 30 30 26 32 37 32 32 34 34 28
10 16 18 18 19 21 22 21 23 26 26 28 32 35 39 27 18 18 20 17 18 23 24 31 32 34 37 37 36 35 33 31 31 30 30 33 34 33 40 34 34 31 26 26
15 16 18 19 23 24 26 28 31 29 28 26 29 31 26 23 25 21 20 20 22 27 27 25 31 35 36 35 32 28 27 28 31 31 32 37 39 39 40 36 30 24 32 33
18 19 21 21 23 25 27 27 30 30 30 28 27 27 26 25 25 25 21 20 20 19 21 25 27 32 30 34 35 34 30 26 29 30 42 45 45 45 36 29 32 38 37 37
21 21 23 25 26 29 29 30 33 31 30 29 27 25 23 30 23 24 25 18 16 18 19 21 24 32 35 38 29 30 29 28 34 46 49 50 45 42 35 42 41 43 40 35
23 26 30 30 32 34 32 33 33 33 29 27 25 21 22 27 22 25 16 12 16 10 12 21 29 32 37 11 13 18 25 31 33 56 54 47 47 47 50 48 44 42 38 35
27 29 31 31 29 32 30 32 32 28 24 22 21 21 23 23 22 18 6 7 8 9 11 18 25 17 32 31 36 31 37 50 49 55 54 58 56 55 53 50 47 40 36 32
27 28 27 25 21 22 24 24 18 15 14 13 16 18 17 15 17 5 3 6 8 10 12 17 22 19 29 36 39 41 37 37 43 50 51 51 48 50 49 46 42 38 33 28
21 19 18 18 17 18 15 14 14 9 10 12 14 11 14 11 9 6 9 10 8 8 13 16 25 37 36 43 44 52 53 48 47 49 51 51 51 49 44 39 34 29 25 20
16 16 18 16 16 14 13 11 10 11 13 15 13 13 9 8 8 13 14 15 14 13 19 22 29 32 38 38 39 42 45 48 50 50 47 42 37 34 32 29 25 20 15 15
19 14 14 14 8 8 8 9 11 12 12 13 14 8 5 13 12 19 20 19 18 20 22 23 26 32 36 38 40 41 41 39 35 34 34 34 30 27 23 20 18 17 16 14
Wind_Direction
238 263 324 265 335 345 7 271 121 232 193 274 256 35 122 121 108 102 111 130 158 171 182 192 180 56 21 7 244 226 228 232 241 241 258 266 257 250 245 243 242 242 242 243
339 330 55 348 335 354 348 327 320 335 334 237 286 145 134 128 121 118 112 110 111 117 154 188 184 326 2 350 51 223 231 238 246 255 257 260 264 259 256 255 248 245 243 241
282 341 6 12 301 310 281 318 308 335 257 313 96 161 163 140 139 139 138 129 125 123 125 135 143 356 322 315 273 164 222 242 268 263 257 260 263 262 259 255 255 249 247 245
218 32 330 240 265 225 234 44 12 357 322 276 175 130 144 155 141 134 135 136 146 150 147 137 56 316 314 293 303 266 259 281 253 277 271 261 259 261 260 258 255 256 254 253
167 191 277 319 299 17 100 53 347 13 356 356 134 103 94 156 158 139 130 143 147 155 173 221 254 293 300 297 294 287 286 277 276 284 266 263 265 264 259 256 254 253 256 256
112 184 226 252 293 310 123 18 1 49 20 357 340 51 287 155 171 141 140 156 166 188 219 277 285 287 286 281 285 286 290 296 286 277 283 263 258 267 265 258 254 252 253 254
188 197 278 320 337 322 70 270 336 50 53 51 50 82 90 133 169 164 165 184 217 234 246 251 269 283 287 293 297 293 292 292 296 285 275 275 270 258 269 257 251 246 247 245
60 127 185 340 20 87 299 18 24 35 15 23 97 54 16 335 196 215 235 235 234 234 231 241 280 306 306 303 304 304 304 302 300 300 282 266 270 271 262 258 250 242 237 231
141 190 106 67 90 49 28 25 22 19 15 12 3 9 323 287 285 293 257 247 234 244 251 255 270 281 291 300 302 305 309 306 301 302 296 275 262 269 263 252 245 239 232 220
100 82 165 66 28 17 8 4 353 350 348 347 349 341 326 327 314 294 297 283 255 249 250 259 273 282 291 303 299 304 308 307 308 299 302 291 267 261 269 260 246 225 176 145
76 315 315 325 6 359 344 337 331 320 318 319 313 305 304 304 299 293 280 280 278 272 272 275 281 282 290 294 293 298 302 308 304 301 298 295 285 273 277 259 251 240 227 233
212 183 216 305 343 348 353 346 341 336 326 317 307 301 297 289 285 287 289 275 275 276 275 276 276 279 277 279 281 289 296 301 305 301 294 295 284 284 278 263 257 264 231 224
170 230 270 307 335 352 344 334 328 322 324 323 316 310 304 302 293 283 277 281 266 269 265 264 272 263 268 270 275 284 293 299 301 299 288 290 282 277 271 272 263 250 211 197
188 231 211 253 331 348 335 323 320 314 314 319 325 319 309 303 290 284 281 272 280 270 269 267 266 263 260 264 277 285 289 291 294 292 280 276 274 268 253 249 238 200 179 185
175 139 317 314 324 329 327 320 319 316 315 316 321 328 317 311 298 297 282 271 275 277 265 264 261 261 261 272 280 284 285 285 284 278 266 258 259 258 216 198 193 186 179 180
270 327 331 325 323 322 322 314 311 315 314 314 315 315 312 310 304 296 293 270 267 261 268 261 261 271 280 280 283 283 282 280 273 262 254 248 243 236 203 192 188 182 179 173
332 326 322 316 318 317 317 315 316 309 309 316 316 319 323 316 304 281 294 261 253 260 272 278 282 282 284 287 286 282 274 268 260 246 240 241 232 220 207 189 182 178 177 176
299 301 305 305 307 307 317 319 316 318 317 315 319 320 323 333 314 313 303 319 286 269 280 279 283 288 287 281 279 278 267 256 246 238 231 229 222 226 193 184 177 171 166 163
295 289 294 295 295 298 303 307 307 308 314 310 317 326 328 329 324 317 317 305 284 281 280 289 294 294 289 285 262 264 259 252 242 233 221 212 200 201 182 177 173 174 160 155
292 295 298 289 291 296 297 303 312 306 298 305 308 323 324 321 317 316 312 303 285 292 305 309 313 310 288 283 266 261 253 241 232 218 195 183 177 175 171 176 164 156 155 153
294 301 303 301 298 296 294 294 309 304 302 295 302 312 315 321 318 319 316 311 316 318 322 325 318 321 311 288 259 246 228 226 197 174 160 161 165 164 165 154 154 155 152 152
305 298 296 295 292 293 289 290 300 303 299 291 290 299 312 321 319 317 321 342 348 1 4 346 336 327 308 253 185 179 211 192 164 148 149 149 153 152 153 154 152 151 150 148
297 296 296 294 293 292 292 289 298 299 292 286 286 304 313 313 317 308 353 30 14 25 37 27 10 44 100 110 120 111 123 121 123 123 134 145 152 152 152 152 147 147 148 150
307 305 307 302 301 297 290 300 299 292 289 287 305 324 311 307 304 281 122 72 43 28 71 63 49 91 113 110 118 124 117 122 131 130 133 139 140 140 141 144 143 143 145 147
327 327 331 328 316 311 308 301 298 302 329 325 332 316 321 303 289 141 119 97 87 81 96 92 94 82 92 106 115 121 120 126 131 133 136 139 137 135 135 135 137 141 143 141
328 330 329 329 321 314 307 304 310 326 334 337 327 329 317 296 145 146 131 124 118 115 110 101 100 103 111 113 113 119 121 124 126 127 127 128 128 130 132 133 134 136 135 136
341 331 320 326 335 333 325 325 323 332 333 323 327 323 325 148 151 152 141 124 135 132 121 112 106 108 111 113 114 117 118 116 116 122 125 124 125 127 127 127 124 121 120 119
Height
1523 1524 1518 1517 1518 1516 1518 1515 1523 1516 1515 1504 1495 1497 1494 1492 1494 1495 1498 1501 1505 1506 1506 1511 1515 1516 1514 1513 1510 1510 1513 1519 1518 1518 1522 1525 1526 1527 1529 1529 1530 1532 1534 1536
1529 1518 1520 1519 1514 1513 1511 1508 1505 1505 1507 1495 1490 1496 1490 1490 1491 1494 1495 1497 1498 1501 1508 1509 1511 1511 1512 1512 1508 1509 1513 1516 1515 1516 1520 1521 1523 1524 1524 1525 1526 1528 1529 1531
1537 1525 1522 1535 1516 1513 1513 1507 1506 1516 1503 1492 1492 1492 1495 1484 1487 1491 1492 1493 1497 1504 1506 1509 1512 1511 1512 1510 1508 1508 1511 1514 1514 1514 1516 1517 1518 1519 1520 1521 1522 1522 1524 1527
1540 1530 1551 1522 1506 1506 1509 1509 1506 1504 1499 1491 1490 1492 1493 1495 1489 1490 1495 1496 1499 1501 1501 1506 1508 1510 1508 1510 1507 1507 1505 1504 1506 1509 1510 1512 1513 1513 1514 1515 1516 1517 1518 1521
1538 1546 1531 1514 1504 1507 1509 1514 1508 1506 1498 1493 1492 1491 1495 1496 1495 1496 1498 1498 1500 1501 1502 1502 1505 1504 1505 1507 1505 1503 1504 1505 1504 1503 1504 1505 1505 1505 1506 1507 1509 1510 1514 1517
1539 1540 1545 1516 1502 1498 1499 1526 1508 1505 1502 1498 1494 1504 1498 1496 1498 1499 1497 1498 1499 1501 1500 1501 1501 1501 1505 1507 1504 1501 1500 1500 1502 1502 1500 1498 1497 1497 1498 1500 1502 1507 1509 1513
1533 1533 1522 1508 1502 1496 1523 1532 1510 1505 1504 1502 1503 1503 1500 1500 1501 1500 1499 1498 1498 1498 1498 1500 1500 1502 1503 1502 1500 1499 1497 1495 1495 1495 1492 1491 1489 1489 1490 1492 1496 1500 1503 1505
1528 1526 1530 1507 1504 1518 1522 1515 1510 1507 1507 1506 1504 1504 1505 1503 1503 1504 1501 1500 1498 1495 1495 1495 1495 1496 1497 1497 1497 1496 1492 1489 1489 1487 1484 1483 1482 1482 1482 1485 1488 1489 1492 1493
1520 1526 1518 1515 1516 1518 1517 1514 1512 1509 1509 1508 1506 1505 1503 1502 1502 1500 1498 1496 1495 1493 1493 1492 1491 1492 1493 1494 1493 1491 1489 1486 1483 1480 1477 1475 1475 1475 1476 1478 1478 1481 1480 1484
1514 1517 1517 1514 1514 1513 1512 1511 1510 1509 1508 1506 1504 1502 1500 1500 1498 1497 1497 1494 1492 1491 1489 1489 1488 1487 1485 1486 1486 1483 1481 1480 1477 1473 1470 1468 1467 1468 1470 1470 1472 1470 1474 1459
1514 1512 1510 1509 1510 1510 1509 1508 1506 1504 1503 1501 1500 1498 1495 1492 1490 1489 1489 1489 1486 1484 1483 1483 1482 1480 1479 1479 1477 1475 1474 1471 1468 1466 1462 1461 1461 1460 1461 1463 1464 1462 1466 1469
1514 1510 1509 1507 1506 1504 1503 1502 1501 1499 1495 1494 1493 1490 1487 1483 1481 1479 1477 1474 1474 1473 1472 1473 1473 1472 1470 1470 1469 1467 1465 1462 1459 1456 1454 1454 1454 1453 1454 1457 1457 1458 1463 1469
1504 1505 1505 1505 1504 1501 1500 1499 1497 1494 1491 1486 1484 1482 1479 1473 1471 1468 1465 1463 1462 1461 1461 1461 1461 1461 1461 1460 1458 1457 1455 1453 1449 1446 1446 1446 1447 1448 1448 1450 1451 1453 1458 1464
1500 1502 1502 1502 1500 1498 1497 1495 1493 1489 1486 1483 1478 1474 1470 1465 1460 1456 1452 1452 1451 1449 1450 1450 1450 1450 1451 1449 1447 1445 1444 1442 1441 1439 1439 1441 1443 1444 1445 1446 1447 1448 1454 1460
1497 1497 1498 1498 1495 1493 1492 1489 1485 1482 1479 1475 1471 1465 1459 1454 1449 1445 1440 1438 1440 1438 1438 1439 1438 1438 1439 1437 1436 1434 1433 1431 1430 1431 1431 1434 1438 1440 1443 1443 1445 1447 1452 1456
1494 1494 1494 1493 1490 1488 1485 1483 1480 1476 1473 1468 1464 1459 1454 1447 1441 1436 1431 1427 1426 1427 1430 1429 1428 1429 1428 1425 1423 1420 1419 1419 1419 1421 1422 1425 1430 1435 1439 1440 1444 1448 1452 1457
1490 1489 1488 1487 1485 1482 1480 1478 1475 1470 1467 1463 1458 1452 1447 1437 1430 1427 1425 1422 1420 1417 1420 1421 1419 1419 1415 1413 1410 1407 1406 1407 1408 1411 1414 1417 1422 1427 1433 1439 1444 1449 1453 1459
1489 1487 1485 1483 1480 1477 1474 1472 1469 1465 1462 1457 1452 1447 1442 1434 1428 1424 1420 1412 1410 1410 1411 1413 1410 1406 1402 1399 1395 1393 1391 1393 1396 1400 1405 1409 1414 1420 1426 1435 1442 1449 1456 1461
1484 1482 1480 1477 1475 1472 1469 1465 1462 1459 1456 1452 1448 1442 1435 1429 1423 1418 1413 1410 1409 1409 1408 1404 1399 1393 1386 1382 1380 1379 1379 1380 1383 1388 1394 1401 1407 1415 1424 1431 1438 1446 1451 1457
1479 1477 1474 1471 1468 1465 1462 1458 1454 1451 1449 1446 1442 1437 1431 1426 1422 1417 1413 1408 1405 1403 1400 1394 1387 1379 1371 1366 1365 1366 1368 1369 1372 1376 1382 1392 1400 1412 1424 1429 1436 1444 1452 1457
1473 1471 1468 1465 1461 1458 1455 1451 1447 1443 1441 1439 1436 1433 1428 1423 1418 1413 1408 1404 1401 1397 1392 1385 1377 1367 1356 1349 1345 1349 1356 1362 1363 1366 1377 1385 1399 1412 1421 1431 1439 1446 1452 1458
1467 1464 1460 1456 1452 1448 1446 1443 1440 1437 1434 1432 1430 1428 1424 1421 1417 1411 1407 1405 1399 1395 1389 1382 1369 1353 1332 1331 1337 1347 1351 1345 1356 1357 1376 1387 1399 1411 1421 1431 1441 1449 1456 1462
1460 1455 1451 1447 1444 1439 1436 1434 1432 1429 1427 1425 1424 1422 1420 1418 1415 1409 1408 1406 1403 1397 1393 1385 1373 1356 1340 1343 1345 1350 1356 1352 1354 1352 1378 1392 1402 1412 1422 1432 1443 1453 1460 1466
1452 1447 1441 1437 1434 1431 1429 1427 1425 1424 1423 1422 1421 1419 1415 1414 1412 1409 1409 1408 1406 1402 1397 1392 1383 1370 1361 1358 1360 1360 1365 1372 1374 1379 1389 1399 1407 1419 1433 1442 1449 1458 1465 1469
1445 1440 1436 1432 1428 1425 1423 1422 1421 1419 1419 1418 1416 1415 1414 1412 1411 1409 1411 1410 1409 1407 1404 1400 1395 1389 1381 1378 1379 1380 1383 1388 1396 1401 1410 1423 1430 1436 1445 1450 1456 1462 1468 1471
1441 1436 1432 1428 1425 1422 1420 1419 1418 1417 1416 1414 1414 1413 1410 1409 1408 1411 1413 1414 1414 1413 1411 1409 1406 1404 1401 1401 1401 1401 1404 1411 1417 1423 1428 1434 1440 1445 1451 1457 1462 1466 1469 1472
1438 1434 1430 1426 1424 1421 1420 1419 1417 1415 1414 1413 1411 1409 1407 1408 1410 1414 1416 1418 1419 1418 1418 1418 1418 1417 1417 1418 1420 1422 1425 1427 1430 1435 1441 1445 1450 1454 1457 1461 1464 1466 1470 1474